Hourly Weather Roundup
Issued by NWS Central Illinois

Home | Current Version | Previous Version | Text Only | Print | Product List | Glossary On
Versions: 1 2 3 4 5 6 7 8 9 10 11 12 13 14 15 16 17 18 19 20 21 22 23 24 25 26 27 28 29 30 31 32 33 34 35 36 37 38 39 40 41 42 43 44 45 46 47 48 49 50
000
NZUS43 KILX 220710
HWRILX

AREA WEATHER ROUNDUP
NATIONAL WEATHER SERVICE, LINCOLN IL
100 AM CST WED FEB 22 2017


CITY           SKY/WX    TMP DP  RH WIND       PRES   REMARKS
BLOOMINGTON    CLEAR     48  48 100 SW8       29.87S FOG
CHAMPAIGN      PTCLDY    51  49  92 S6        29.87S FOG
DECATUR        PTCLDY    53  51  93 S8        29.86S
EFFINGHAM      MOCLDY    49  49 100 E3        29.91S FOG
FLORA          FOG       54  53  97 CALM      29.89F VSB 1/2
GALESBURG      FOG       49  49 100 S5        29.85S VSB<1/4
JACKSONVILLE   FOG       54  53  99 S5        29.86S VSB 1
LACON          FOG       50  50 100 CALM      29.85S VSB 1/4
LAWRENCEVILLE  FOG       52  52 100 E5        29.89F VSB 1/4
LITCHFIELD     MOCLDY    51  51 100 S5        29.88R FOG
$$


CITY           SKY/WX    TMP DP  RH WIND       PRES   REMARKS
LINCOLN        FOG       50  50 100 CALM      29.86S VSB<1/4
MACOMB         FOG       48  48 100 SW5       29.87S VSB 1/4
MATTOON        CLOUDY    48  48 100 S6        29.87F FOG
MT CARMEL AP   FOG       52  51  97 CALM      29.89F VSB 1/4
OLNEY-NOBLE AP FOG       52  52 100 CALM      29.89F VSB 1
PARIS          MOCLDY    51  51 100 SE5       29.89F FOG
PEORIA         FOG       55  55 100 SW6       29.86S VSB 1/4
PONTIAC        FOG       51  50  98 CALM      29.87S VSB 1/4
RANTOUL        PTCLDY    52  51  97 S6        29.87R FOG
SPRINGFIELD    FOG       52  50  93 CALM      29.87R VSB 1/2
TAYLORVILLE    MOCLDY    50  50 100 S5        29.88R FOG
$$

...REGIONAL REPORTS...


CITY           SKY/WX    TMP DP  RH WIND       PRES   REMARKS
CHICAGO O`HARE MOCLDY    56  52  86 SW5       29.84S
KANKAKEE       PTCLDY    49  49  97 SW3       29.87S FOG
MOLINE         CLEAR     49  46  90 CALM      29.83S FOG
MOUNT STERLING FOG       50  50 100 S6        29.86S VSB<1/4
MOUNT VERNON   CLOUDY    50  49  96 CALM      29.89F
PITTSFIELD     FOG       51  51 100 SW3       29.88S VSB 1/4
QUINCY         FOG       50  50 100 S5        29.86S VSB<1/4
ROCKFORD       FOG       44  42  93 CALM      29.85F VSB 1/4
$$


CITY           SKY/WX    TMP DP  RH WIND       PRES   REMARKS
BURLINGTON     FOG       52  52 100 SW7       29.84S VSB 1/4
CEDAR RAPIDS   CLEAR     44  44 100 S9        29.79F
DES MOINES     CLEAR     50  33  52 S9        29.77F
KIRKSVILLE     CLEAR     55  53  93 SW9       29.86S
OTTUMWA        CLEAR     47  34  60 S12       29.80F
ST LOUIS       MOCLDY    58  53  84 S3        29.88S
$$


CITY           SKY/WX    TMP DP  RH WIND       PRES   REMARKS
TERRE HAUTE    CLOUDY    50  49  96 CALM      29.90R FOG
EVANSVILLE     CLOUDY    59  53  80 S3        29.90F
INDIANAPOLIS   CLOUDY    55  53  93 SE6       29.90S FOG
LAFAYETTE      PTCLDY    54  51  90 S5        29.87F
MADISON        PTCLDY    40  36  86 MISG      29.79F
MILWAUKEE      PTCLDY    43  38  82 CALM      29.81F
$$





USA.gov is the U.S. government's official web portal to all federal, state and local government web resources and services.